This is the latest recevied weather packets stored in our database for station/object N7SWJ. If no packets are shown the sender has not sent any weather packets the latest 10 day(s).
| Time | Temp. | Humidity | Pressure | Rain* | Wind** | Luminosity | Snow |
|---|---|---|---|---|---|---|---|
| 1778119158 | 4.44° C | 71% | 1019.7 hPa | 0 mm | - | 3 W/m² | - |
| 1778118856 | 4.44° C | 70% | 1019.7 hPa | 0 mm | - | 4 W/m² | - |
| 1778118553 | 4.44° C | 70% | 1020 hPa | 0 mm | - | 7 W/m² | - |
| 1778118249 | 5° C | 69% | 1019.9 hPa | 0 mm | - | 9 W/m² | - |
| 1778117945 | 5° C | 69% | 1019.9 hPa | 0 mm | - | 12 W/m² | - |
| 1778117642 | 5.56° C | 68% | 1019.6 hPa | 0 mm | - | 14 W/m² | - |
| 1778117340 | 5.56° C | 67% | 1019.7 hPa | 0 mm | - | 16 W/m² | - |
| 1778117035 | 5.56° C | 64% | 1019.9 hPa | 0 mm | - | 18 W/m² | - |
| 1778116733 | 5.56° C | 63% | 1019.7 hPa | 0 mm | - | 20 W/m² | - |
| 1778116430 | 5.56° C | 64% | 1019.7 hPa | 0 mm | - | 22 W/m² | - |
| 1778116129 | 5.56° C | 65% | 1019.8 hPa | 0 mm | - | 25 W/m² | - |
| 1778115825 | 5.56° C | 64% | 1019.7 hPa | 0 mm | - | 26 W/m² | - |
| 1778115523 | 6.11° C | 64% | 1019.6 hPa | 0 mm | - | 28 W/m² | - |
| 1778115219 | 6.11° C | 63% | 1019.8 hPa | 0 mm | - | 30 W/m² | - |
| 1778114916 | 6.11° C | 64% | 1019.6 hPa | 0 mm | - | 33 W/m² | - |
| 1778114613 | 6.11° C | 62% | 1019.8 hPa | 0 mm | - | 34 W/m² | - |
| 1778114310 | 6.67° C | 62% | 1019.8 hPa | 0 mm | - | 36 W/m² | - |
| 1778114006 | 6.67° C | 62% | 1019.7 hPa | 0 mm | - | 38 W/m² | - |
| 1778113700 | 6.11° C | 63% | 1019.9 hPa | 0 mm | - | 43 W/m² | - |
| 1778113397 | 6.67° C | 62% | 1019.8 hPa | 0 mm | - | 51 W/m² | - |
| 1778113090 | 6.67° C | 63% | 1019.8 hPa | 0 mm | - | 46 W/m² | - |
| 1778112787 | 6.67° C | 59% | 1020 hPa | 0 mm | - | 52 W/m² | - |
| 1778112482 | 7.22° C | 56% | 1019.9 hPa | 0 mm | - | 106 W/m² | - |
| 1778112172 | 7.78° C | 57% | 1020 hPa | 0 mm | - | 172 W/m² | - |
| 1778111869 | 7.78° C | 56% | 1020.4 hPa | 0 mm | - | 190 W/m² | - |
* Rain latest hour (hover to see other rain measurements)
** Current wind speed in m/s (hover to see current wind gust speed)